Location: Observatorio del Centro Ecologico de Sonora
(29.0667°N, 110.9333°W)
Time: 15:08:00
(UTC-07:00)

ISS - Visible Passes

Search period start: 23 November 2014 00:00
Search period end: 03 December 2014 00:00
Orbit: 408 x 417 km, 51.6° (Epoch: 23 November)

Date Brightness Start Highest point End Pass type
(mag) Time Alt. Az. Time Alt. Az. Time Alt. Az.
25 Nov -0.7 06:25:21 10° N 06:27:12 14° NE 06:29:02 10° ENE visible
27 Nov -2.1 06:21:11 10° NNW 06:24:17 38° NE 06:27:23 10° ESE visible
28 Nov -1.1 05:32:44 15° N 05:34:15 20° NE 05:36:47 10° E visible
29 Nov 0.0 04:45:08 10° NE 04:45:08 10° NE 04:45:18 10° ENE visible
29 Nov -3.1 06:17:58 12° NW 06:20:57 54° SW 06:24:09 10° SSE visible
30 Nov -3.1 05:30:24 52° N 05:30:56 63° NE 05:34:12 10° SE visible
01 Dec -0.2 04:42:51 16° E 04:42:51 16° E 04:43:44 10° ESE visible
01 Dec -1.3 06:15:41 12° W 06:17:12 15° SW 06:19:12 10° SSW visible
02 Dec -1.8 05:28:09 26° SSW 05:28:09 26° SSW 05:30:10 10° SSE visible
